Deer Park, WA

8:46 PM PDT on May 22, 2018 (GMT -0700)
Deer Park

Weather History for KDEW - September, 2013

Change the Weather History Date:

Monday, September 30, 2013

  Actual Average Record
Temperature  
Mean Temperature 50 °F 50 °F  
Max Temperature 56 °F 67 °F 82 °F (2015)
Min Temperature 43 °F 34 °F 29 °F (2007)
Degree Days  
Heating Degree Days 15 15  
Month to date heating degree days 220 276  
Since 1 July heating degree days 263 419  
Cooling Degree Days 0 0  
Month to date cooling degree days 69 12  
Year to date cooling degree days 310 187  
Moisture  
Dew Point 39 °F    
Average Humidity 72    
Maximum Humidity 93    
Minimum Humidity 51    
Precipitation  
Precipitation 0.05 in 0.04 in 0.43 in (2005)
Month to date precipitation 2.41 1.00  
Year to date precipitation 14.38 14.44  
Sea Level Pressure  
Sea Level Pressure 29.68 in    
Wind  
Wind Speed 16 mph (SSW)    
Max Wind Speed 29 mph    
Max Gust Speed 37 mph    
Visibility 10 miles    
Events Rain    
T = Trace of Precipitation, MM = Missing Value Source: NWS Daily Summary

Daily Weather History Graph

Daily Weather History Graph

Search for Another Location

Airport or City:

Astronomy

Sep. 30, 2013 Rise Set
Actual Time 6:47 AM PDT 6:30 PM PDT
Civil Twilight 6:17 AM PDT 7:01 PM PDT
Nautical Twilight 5:41 AM PDT 7:37 PM PDT
Astronomical Twilight 5:04 AM PDT 8:13 PM PDT
Moon 2:12 AM PDT (9/30) 4:17 PM PDT (9/30)
Length of Visible Light 12h 44m
Length of Day
11h 42m
Waning Crescent, 18% of the Moon is Illuminated
Sep 30
Waning Crescent
Oct 4
New
Oct 11
First Quarter
Oct 18
Full
Oct 26
Last Quarter

Hourly Weather History & Observations

Time (PDT) Temp. Windchill Dew Point Humidity Pressure Visibility Wind Dir Wind Speed Gust Speed Precip Events Conditions
12:53 AM 48.0 °F - 45.0 °F 89% 29.41 in 9.0 mi South 8.1 mph - 0.05 in Rain Light Rain
1:23 AM 48.2 °F - 44.6 °F 87% 29.41 in 10.0 mi South 10.4 mph - 0.01 in Rain Light Rain
1:53 AM 48.9 °F - 46.0 °F 90% 29.43 in 9.0 mi SSW 13.8 mph 24.2 mph 0.02 in Rain Light Rain
2:53 AM 50.0 °F - 46.9 °F 89% 29.42 in 10.0 mi SSW 20.7 mph 25.3 mph 0.02 in   Mostly Cloudy
3:21 AM 48.2 °F - 44.6 °F 87% 29.44 in 10.0 mi SSW 20.7 mph 27.6 mph N/A   Scattered Clouds
3:53 AM 48.0 °F - 41.0 °F 77% 29.50 in 10.0 mi SW 19.6 mph 28.8 mph N/A   Clear
4:53 AM 46.0 °F 39.3 °F 37.9 °F 73% 29.54 in 10.0 mi SW 16.1 mph 21.9 mph N/A   Clear
5:53 AM 45.0 °F 37.6 °F 37.9 °F 76% 29.58 in 10.0 mi SSW 17.3 mph 24.2 mph N/A   Clear
6:53 AM 43.0 °F 34.2 °F 36.0 °F 76% 29.61 in 10.0 mi SSW 20.7 mph 28.8 mph N/A   Clear
7:53 AM 44.1 °F 38.1 °F 37.0 °F 76% 29.65 in 10.0 mi SSW 11.5 mph - N/A   Partly Cloudy
8:53 AM 46.9 °F - 37.9 °F 71% 29.68 in 10.0 mi South 10.4 mph 19.6 mph N/A   Overcast
9:22 AM 46.4 °F 39.2 °F 37.4 °F 71% 29.67 in 10.0 mi SSW 18.4 mph 25.3 mph N/A   Overcast
9:53 AM 48.0 °F - 37.9 °F 68% 29.70 in 10.0 mi SSW 16.1 mph 29.9 mph N/A   Overcast
10:09 AM 48.2 °F - 37.4 °F 66% 29.69 in 10.0 mi South 16.1 mph 24.2 mph N/A   Overcast
10:23 AM 46.4 °F 40.7 °F 37.4 °F 71% 29.70 in 10.0 mi SSW 12.7 mph 25.3 mph N/A   Overcast
10:53 AM 48.0 °F - 37.9 °F 68% 29.71 in 10.0 mi SSW 15.0 mph - 0.00 in   Overcast
11:53 AM 48.9 °F - 39.0 °F 69% 29.71 in 10.0 mi SSW 18.4 mph 25.3 mph 0.00 in Rain Light Rain
12:53 PM 50.0 °F - 37.9 °F 63% 29.73 in 10.0 mi SSW 16.1 mph 32.2 mph 0.01 in   Overcast
1:53 PM 53.1 °F - 39.0 °F 59% 29.73 in 10.0 mi SW 15.0 mph 24.2 mph N/A   Overcast
2:53 PM 54.0 °F - 37.0 °F 53% 29.76 in 10.0 mi SW 26.5 mph 35.7 mph N/A   Overcast
3:53 PM 55.0 °F - 37.0 °F 51% 29.79 in 10.0 mi SW 18.4 mph 29.9 mph N/A   Mostly Cloudy
4:53 PM 54.0 °F - 37.0 °F 53% 29.80 in 10.0 mi SSW 16.1 mph 23.0 mph N/A   Scattered Clouds
5:53 PM 53.1 °F - 39.0 °F 59% 29.82 in 10.0 mi SW 21.9 mph 28.8 mph N/A   Mostly Cloudy
6:53 PM 52.0 °F - 39.0 °F 61% 29.84 in 10.0 mi SSW 15.0 mph - N/A   Overcast
7:53 PM 51.1 °F - 39.0 °F 63% 29.86 in 10.0 mi South 11.5 mph - N/A   Mostly Cloudy
8:53 PM 50.0 °F - 37.9 °F 63% 29.85 in 10.0 mi SSW 18.4 mph 29.9 mph N/A   Clear
9:53 PM 48.9 °F - 37.9 °F 66% 29.87 in 10.0 mi SSW 15.0 mph - N/A   Mostly Cloudy
10:53 PM 48.0 °F - 37.9 °F 68% 29.88 in 10.0 mi SSW 17.3 mph 21.9 mph N/A   Mostly Cloudy
11:53 PM 46.0 °F 41.0 °F 37.9 °F 73% 29.91 in 10.0 mi SSW 10.4 mph - N/A   Partly Cloudy